Weather History for Robinson, IL

Change the Weather History Date:

Monday, February 18, 2013

  Actual Average (KLWV) Record (KLWV)
Temperature  
Mean Temperature 47 °F 36 °F  
Max Temperature 61 °F 45 °F 64 °F (1997)
Min Temperature 33 °F 28 °F -5 °F (1993)
Degree Days  
Heating Degree Days 18 29  
Month to date heating degree days 557  
Since 1 July heating degree days 3408  
Cooling Degree Days 0 0  
Month to date cooling degree days 0  
Year to date cooling degree days 0  
Moisture  
Dew Point 35 °F    
Average Humidity 67    
Maximum Humidity 92    
Minimum Humidity 41    
Precipitation  
Precipitation 0.43 in 0.07 in 1.29 in (2000)
Month to date precipitation 1.37  
Year to date precipitation 3.75  
Sea Level Pressure  
Sea Level Pressure 29.85 in    
Wind  
Wind Speed 16 mph (SSE)    
Max Wind Speed 38 mph    
Max Gust Speed 46 mph    
Visibility 9 miles    
Events Rain    
T = Trace of Precipitation, MM = Missing Value Source: NWS Daily Summary

Daily Weather History Graph

Daily Weather History Graph

Search for Another Location

Airport:

Trip Planner

Search our weather history database for the weather conditions in past years. The results will help you decide how hot, cold, wet, or windy it might be!

Date:

Astronomy

Feb. 18, 2013 Rise Set
Actual Time 6:37 AM CST 5:31 PM CST
Civil Twilight 6:10 AM CST 5:58 PM CST
Nautical Twilight 5:39 AM CST 6:29 PM CST
Astronomical Twilight 5:08 AM CST 7:00 PM CST
Moon 11:18 AM CST (2/18) 1:15 AM CST (2/18)
Length of Visible Light 11h 48m
Length of Day
10h 53m
First Quarter, 58% of the Moon is Illuminated
Feb 18
First Quarter
Feb 25
Full
Mar 4
Last Quarter
Mar 11
New
Mar 19
First Quarter

Hourly Weather History & Observations

Time (CST) Temp. Windchill Dew Point Humidity Pressure Visibility Wind Dir Wind Speed Gust Speed Precip Events Conditions
12:15 AM 33.1 °F 26.1 °F 20.5 °F 60% 30.08 in 10.0 mi ESE 8.1 mph - N/A   Clear
12:55 AM 34.3 °F 25.9 °F 20.1 °F 56% 30.07 in 10.0 mi SE 11.5 mph 17.3 mph N/A   Clear
1:15 AM 34.2 °F 25.7 °F 20.5 °F 57% 30.06 in 10.0 mi ESE 11.5 mph - N/A   Clear
1:35 AM 33.8 °F 25.8 °F 21.0 °F 60% 30.05 in 10.0 mi ESE 10.4 mph - N/A   Clear
1:55 AM 34.0 °F 25.5 °F 21.2 °F 60% 30.04 in 10.0 mi ESE 11.5 mph - N/A   Clear
2:15 AM 33.8 °F 25.8 °F 21.2 °F 60% 30.03 in 10.0 mi SE 10.4 mph - N/A   Clear
2:35 AM 33.8 °F 25.8 °F 21.6 °F 61% 30.03 in 10.0 mi ESE 10.4 mph - N/A   Clear
2:55 AM 33.6 °F 26.2 °F 21.6 °F 61% 30.02 in 10.0 mi ESE 9.2 mph - N/A   Clear
3:15 AM 33.6 °F 26.2 °F 21.7 °F 62% 30.01 in 10.0 mi SE 9.2 mph - N/A   Clear
3:35 AM 33.1 °F 26.1 °F 22.1 °F 64% 30.01 in 10.0 mi SE 8.1 mph - N/A   Clear
3:55 AM 33.1 °F 26.9 °F 22.5 °F 65% 30.01 in 10.0 mi ESE 6.9 mph - N/A   Clear
4:15 AM 33.6 °F 25.6 °F 22.6 °F 64% 30.00 in 10.0 mi SE 10.4 mph - N/A   Clear
4:35 AM 35.2 °F 28.1 °F 23.0 °F 61% 30.00 in 10.0 mi SE 9.2 mph - N/A   Clear
5:15 AM 37.2 °F 29.6 °F 23.5 °F 58% 30.00 in 10.0 mi SSE 11.5 mph - N/A   Clear
5:35 AM 37.6 °F 29.6 °F 23.9 °F 58% 29.98 in 10.0 mi SSE 12.7 mph - N/A   Clear
5:55 AM 37.6 °F 29.1 °F 24.4 °F 59% 29.98 in 10.0 mi SSE 13.8 mph - N/A   Clear
6:15 AM 37.8 °F 29.4 °F 24.8 °F 60% 29.97 in 10.0 mi SSE 13.8 mph 20.7 mph N/A   Clear
6:35 AM 37.8 °F 29.8 °F 25.5 °F 61% 29.97 in 10.0 mi SSE 12.7 mph 28.8 mph N/A   Clear
6:55 AM 38.1 °F 29.5 °F 25.7 °F 61% 29.97 in 10.0 mi SSE 15.0 mph - N/A   Clear
7:15 AM 38.8 °F 30.8 °F 26.8 °F 62% 29.96 in 10.0 mi SSE 13.8 mph - N/A   Clear
7:35 AM 39.7 °F 31.9 °F 27.3 °F 61% 29.97 in 10.0 mi SSE 13.8 mph - N/A   Clear
7:55 AM 41.0 °F 32.8 °F 28.4 °F 61% 29.96 in 10.0 mi SSE 16.1 mph 20.7 mph N/A   Clear
8:15 AM 42.1 °F 34.2 °F 29.5 °F 61% 29.96 in 10.0 mi SSE 16.1 mph 21.9 mph N/A   Clear
8:35 AM 43.3 °F 35.0 °F 30.7 °F 61% 29.95 in 10.0 mi SSE 19.6 mph 24.2 mph N/A   Clear
8:55 AM 45.3 °F 37.1 °F 32.0 °F 60% 29.95 in 10.0 mi SSE 21.9 mph 27.6 mph N/A   Clear
9:15 AM 47.1 °F - 33.1 °F 58% 29.94 in 10.0 mi South 19.6 mph 24.2 mph N/A   Clear
9:35 AM 49.3 °F - 34.9 °F 58% 29.93 in 10.0 mi South 21.9 mph 26.5 mph N/A   Clear
9:55 AM 50.9 °F - 36.7 °F 58% 29.93 in 10.0 mi South 24.2 mph - N/A   Clear
10:15 AM 51.6 °F - 37.8 °F 59% 29.92 in 10.0 mi South 26.5 mph 33.4 mph N/A   Clear
10:35 AM 52.5 °F - 38.3 °F 58% 29.92 in 10.0 mi South 25.3 mph 32.2 mph N/A   Clear
10:55 AM 53.6 °F - 39.4 °F 59% 29.91 in 10.0 mi South 19.6 mph 25.3 mph N/A   Clear
11:15 AM 55.4 °F - 40.1 °F 56% 29.90 in 10.0 mi SSE 23.0 mph 28.8 mph N/A   Scattered Clouds
11:35 AM 56.1 °F - 40.6 °F 56% 29.89 in 10.0 mi South 20.7 mph 40.3 mph N/A   Mostly Cloudy
11:55 AM 56.3 °F - 41.0 °F 57% 29.88 in 10.0 mi South 26.5 mph - N/A   Scattered Clouds
12:15 PM 57.2 °F - 41.2 °F 55% 29.87 in 10.0 mi SSE 24.2 mph 29.9 mph N/A   Mostly Cloudy
12:35 PM 58.3 °F - 41.2 °F 53% 29.84 in 10.0 mi SSE 26.5 mph 34.5 mph N/A   Mostly Cloudy
12:55 PM 58.8 °F - 41.4 °F 52% 29.84 in 10.0 mi South 24.2 mph 34.5 mph N/A   Mostly Cloudy
1:15 PM 59.4 °F - 41.0 °F 51% 29.82 in 10.0 mi South 20.7 mph 33.4 mph N/A   Overcast
1:35 PM 61.5 °F - 40.3 °F 46% 29.81 in 10.0 mi South 25.3 mph 38.0 mph N/A   Mostly Cloudy
1:55 PM 59.7 °F - 38.1 °F 45% 29.79 in 10.0 mi SSE 25.3 mph 32.2 mph N/A   Mostly Cloudy
2:15 PM 59.0 °F - 37.6 °F 45% 29.79 in 10.0 mi South 19.6 mph 35.7 mph N/A   Overcast
2:35 PM 58.3 °F - 34.9 °F 41% 29.79 in 10.0 mi South 23.0 mph 28.8 mph N/A   Overcast
2:55 PM 55.9 °F - 37.2 °F 49% 29.78 in 10.0 mi South 32.2 mph 46.0 mph N/A Rain Light Rain
3:15 PM 54.9 °F - 37.9 °F 53% 29.78 in 10.0 mi South 28.8 mph 34.5 mph N/A Rain Light Rain
3:35 PM 53.8 °F - 39.0 °F 57% 29.78 in 10.0 mi South 38.0 mph 44.9 mph N/A Rain Light Rain
3:55 PM 51.3 °F - 41.4 °F 69% 29.78 in 7.0 mi South 23.0 mph 33.4 mph 0.02 in Rain Rain
4:15 PM 50.7 °F - 41.9 °F 72% 29.78 in 10.0 mi South 18.4 mph 28.8 mph 0.01 in Rain Light Rain
4:35 PM 50.0 °F - 42.4 °F 75% 29.75 in 7.0 mi SSE 18.4 mph 24.2 mph 0.02 in Rain Light Rain
4:55 PM 49.6 °F - 42.8 °F 77% 29.73 in 10.0 mi SSE 18.4 mph 25.3 mph 0.03 in   Light Drizzle
5:15 PM 50.2 °F - 42.8 °F 76% 29.71 in 10.0 mi SSE 24.2 mph 32.2 mph N/A   Overcast
5:35 PM 50.0 °F - 43.2 °F 77% 29.70 in 7.0 mi SSE 27.6 mph 34.5 mph N/A   Light Drizzle
5:55 PM 50.2 °F - 42.8 °F 76% 29.70 in 10.0 mi SSE 24.2 mph 32.2 mph N/A   Overcast
6:35 PM 49.1 °F - 43.7 °F 82% 29.70 in 5.0 mi SSE 21.9 mph 33.4 mph 0.08 in Rain Rain
6:55 PM 48.6 °F - 44.8 °F 87% 29.68 in 7.0 mi SSE 23.0 mph 31.1 mph 0.13 in Rain Light Rain
7:15 PM 48.7 °F - 45.5 °F 89% 29.67 in 10.0 mi SSE 20.7 mph 28.8 mph 0.02 in Rain Light Rain
7:35 PM 48.7 °F - 45.7 °F 89% 29.65 in 7.0 mi SSE 23.0 mph 32.2 mph 0.03 in Rain Light Rain
7:55 PM 49.1 °F - 45.7 °F 88% 29.65 in 3.0 mi SSE 27.6 mph 34.5 mph 0.10 in Rain Rain
8:15 PM 48.9 °F - 46.0 °F 90% 29.67 in 5.0 mi SSE 24.2 mph 29.9 mph 0.05 in Rain Rain
8:35 PM 49.1 °F - 46.0 °F 89% 29.66 in 7.0 mi SSE 17.3 mph 26.5 mph 0.09 in Rain Rain
8:55 PM 48.7 °F - 46.0 °F 90% 29.64 in 5.0 mi SSE 25.3 mph 34.5 mph 0.12 in Rain Light Rain
9:15 PM 48.7 °F - 46.4 °F 92% 29.62 in 10.0 mi SSE 19.6 mph 27.6 mph N/A Rain Light Rain
9:35 PM 49.5 °F - 46.4 °F 89% 29.63 in 10.0 mi South 28.8 mph 34.5 mph 0.01 in   Overcast
9:55 PM 49.6 °F - 46.4 °F 89% 29.63 in 10.0 mi South 19.6 mph 28.8 mph 0.01 in Rain Light Rain
10:15 PM 49.6 °F - 46.6 °F 89% 29.63 in 7.0 mi South 16.1 mph 24.2 mph N/A Rain Rain
10:35 PM 43.9 °F 34.7 °F 41.0 °F 90% 29.70 in 7.0 mi West 24.2 mph 32.2 mph 0.02 in Rain Light Rain
10:55 PM 41.2 °F 30.5 °F 37.6 °F 87% 29.73 in 7.0 mi West 27.6 mph 34.5 mph 0.02 in   Light Drizzle
11:15 PM 39.9 °F 31.4 °F 36.5 °F 88% 29.75 in 10.0 mi West 16.1 mph 28.8 mph N/A Rain Light Rain
11:35 PM 39.7 °F 29.7 °F 36.0 °F 86% 29.76 in 10.0 mi West 21.9 mph 31.1 mph N/A   Overcast
11:55 PM 38.5 °F 27.3 °F 34.9 °F 87% 29.79 in 10.0 mi West 25.3 mph 35.7 mph N/A   Overcast